Voltar ao catálogo

STARLINK-38049

AtivoComunicaçõesSSO
NORAD 69751·PAYLOAD·🇺🇸 United States

Lançado Jul 2, 2026 de Vandenberg Space Force Base

Loading…

Próximas Passagens (próximas 24 horas)

TLE

AtualizadoSource: CelesTrak SupGP

Época: Sep 14, 2026, 23:15 UTC

1 69751C 26150N   26257.96923611  .00083262  00000+0  25851-2 0  2571
2 69751  97.2847  96.9561 0001830  92.3946  30.8728 15.33390481    14

Acompanhe STARLINK-38049 em tempo real com AllMySat

Download on the App Store